Data supplied by UK-AIR on 1/4/2021
All Data GMT hour ending 
Status: R =Ratified P=Provisional,P*=As supplied
,,Fort William,,,,,,,,,,,,,,,,,,,,,,,
Date,time,"Nitric oxide",status,unit,"Nitrogen dioxide",status,unit,"Nitrogen oxides as nitrogen dioxide",status,unit,"Ozone",status,unit
 
01-01-2020,01:00,0.46099,R,ugm-3,7.21185,R,ugm-3,7.91869,R,ugm-3,49.09811,R,ugm-3
01-01-2020,02:00,0.72606,R,ugm-3,5.19693,R,ugm-3,6.31020,R,ugm-3,47.70920,R,ugm-3
01-01-2020,03:00,0.48404,R,ugm-3,4.71959,R,ugm-3,5.46177,R,ugm-3,48.75088,R,ugm-3
01-01-2020,04:00,0.34574,R,ugm-3,2.70451,R,ugm-3,3.23464,R,ugm-3,52.08428,R,ugm-3
01-01-2020,05:00,0.27659,R,ugm-3,2.06816,R,ugm-3,2.49227,R,ugm-3,56.82395,R,ugm-3
01-01-2020,06:00,0.41489,R,ugm-3,2.22730,R,ugm-3,2.86345,R,ugm-3,54.74057,R,ugm-3
01-01-2020,07:00,0.31117,R,ugm-3,2.28028,R,ugm-3,2.75740,R,ugm-3,53.95931,R,ugm-3
01-01-2020,08:00,0.41489,R,ugm-3,2.17427,R,ugm-3,2.81043,R,ugm-3,56.09476,R,ugm-3
01-01-2020,09:00,0.41489,R,ugm-3,2.33335,R,ugm-3,2.96951,R,ugm-3,56.04268,R,ugm-3
01-01-2020,10:00,0.55319,R,ugm-3,2.70459,R,ugm-3,3.55280,R,ugm-3,54.01139,R,ugm-3
01-01-2020,11:00,0.51861,R,ugm-3,2.59853,R,ugm-3,3.39372,R,ugm-3,52.44887,R,ugm-3
01-01-2020,12:00,0.55319,R,ugm-3,3.60605,R,ugm-3,4.45426,R,ugm-3,51.35510,R,ugm-3
01-01-2020,13:00,0.72606,R,ugm-3,3.97731,R,ugm-3,5.09058,R,ugm-3,48.38629,R,ugm-3
01-01-2020,14:00,1.00265,R,ugm-3,4.45466,R,ugm-3,5.99204,R,ugm-3,45.26124,R,ugm-3
01-01-2020,15:00,1.00265,R,ugm-3,4.45466,R,ugm-3,5.99204,R,ugm-3,48.43838,R,ugm-3
01-01-2020,16:00,1.14095,R,ugm-3,4.82591,R,ugm-3,6.57534,R,ugm-3,52.13636,R,ugm-3
01-01-2020,17:00,0.72606,R,ugm-3,4.45455,R,ugm-3,5.56783,R,ugm-3,55.67809,R,ugm-3
01-01-2020,18:00,0.58776,R,ugm-3,3.23488,R,ugm-3,4.13610,R,ugm-3,59.58441,R,ugm-3
01-01-2020,19:00,0.31117,R,ugm-3,1.64396,R,ugm-3,2.12108,R,ugm-3,63.17823,R,ugm-3
01-01-2020,20:00,0.41489,R,ugm-3,2.49243,R,ugm-3,3.12859,R,ugm-3,62.55322,R,ugm-3
01-01-2020,21:00,0.41489,R,ugm-3,2.01519,R,ugm-3,2.65135,R,ugm-3,64.01158,R,ugm-3
01-01-2020,22:00,0.31117,R,ugm-3,1.80304,R,ugm-3,2.28016,R,ugm-3,63.23031,R,ugm-3
01-01-2020,23:00,0.31117,R,ugm-3,1.43185,R,ugm-3,1.90897,R,ugm-3,62.60530,R,ugm-3
01-01-2020,24:00,0.17287,R,ugm-3,1.53785,R,ugm-3,1.80292,R,ugm-3,61.14694,R,ugm-3
02-01-2020,01:00,0.18461,R,ugm-3,2.19287,R,ugm-3,2.47593,R,ugm-3,56.11167,R,ugm-3
02-01-2020,02:00,0.41537,R,ugm-3,2.06895,R,ugm-3,2.70584,R,ugm-3,54.09527,R,ugm-3
02-01-2020,03:00,0.38076,R,ugm-3,1.43230,R,ugm-3,2.01612,R,ugm-3,57.25894,R,ugm-3
02-01-2020,04:00,0.38076,R,ugm-3,1.27313,R,ugm-3,1.85695,R,ugm-3,58.56265,R,ugm-3
02-01-2020,05:00,0.27692,R,ugm-3,1.64458,R,ugm-3,2.06917,R,ugm-3,59.24058,R,ugm-3
02-01-2020,06:00,0.38076,R,ugm-3,1.53841,R,ugm-3,2.12223,R,ugm-3,62.42163,R,ugm-3
02-01-2020,07:00,0.38076,R,ugm-3,1.22007,R,ugm-3,1.80390,R,ugm-3,63.98608,R,ugm-3
02-01-2020,08:00,0.89998,R,ugm-3,2.38701,R,ugm-3,3.76696,R,ugm-3,60.85718,R,ugm-3
02-01-2020,09:00,0.79613,R,ugm-3,2.12179,R,ugm-3,3.34251,R,ugm-3,58.14546,R,ugm-3
02-01-2020,10:00,0.83075,R,ugm-3,2.70539,R,ugm-3,3.97918,R,ugm-3,57.36323,R,ugm-3
02-01-2020,11:00,0.86536,R,ugm-3,3.28898,R,ugm-3,4.61585,R,ugm-3,58.45835,R,ugm-3
02-01-2020,12:00,1.21151,R,ugm-3,4.34991,R,ugm-3,6.20752,R,ugm-3,58.92768,R,ugm-3
02-01-2020,13:00,1.28074,R,ugm-3,4.50903,R,ugm-3,6.47280,R,ugm-3,63.41245,R,ugm-3
02-01-2020,14:00,1.17689,R,ugm-3,4.19076,R,ugm-3,5.99530,R,ugm-3,63.20385,R,ugm-3
02-01-2020,15:00,1.55765,R,ugm-3,4.93333,R,ugm-3,7.32169,R,ugm-3,62.47378,R,ugm-3
02-01-2020,16:00,1.00382,R,ugm-3,4.77447,R,ugm-3,6.31363,R,ugm-3,62.47378,R,ugm-3
02-01-2020,17:00,1.24612,R,ugm-3,4.03155,R,ugm-3,5.94224,R,ugm-3,68.52299,R,ugm-3
02-01-2020,18:00,1.14228,R,ugm-3,3.87244,R,ugm-3,5.62391,R,ugm-3,64.35112,R,ugm-3
02-01-2020,19:00,1.03843,R,ugm-3,3.66028,R,ugm-3,5.25252,R,ugm-3,67.58432,R,ugm-3
02-01-2020,20:00,3.04607,R,ugm-3,6.52418,R,ugm-3,11.19476,R,ugm-3,73.32064,R,ugm-3
02-01-2020,21:00,0.69229,R,ugm-3,1.53824,R,ugm-3,2.59973,R,ugm-3,85.99270,R,ugm-3
02-01-2020,22:00,0.65768,R,ugm-3,1.43214,R,ugm-3,2.44056,R,ugm-3,87.19212,R,ugm-3
02-01-2020,23:00,0.44999,R,ugm-3,1.69754,R,ugm-3,2.38751,R,ugm-3,87.71360,R,ugm-3
02-01-2020,24:00,0.38076,R,ugm-3,1.75063,R,ugm-3,2.33445,R,ugm-3,87.03567,R,ugm-3
03-01-2020,01:00,1.01654,R,ugm-3,3.11277,R,ugm-3,4.67144,R,ugm-3,85.76775,R,ugm-3
03-01-2020,02:00,0.55448,R,ugm-3,0.90161,R,ugm-3,1.75179,R,ugm-3,88.34357,R,ugm-3
03-01-2020,03:00,0.34655,R,ugm-3,1.16734,R,ugm-3,1.69871,R,ugm-3,86.30728,R,ugm-3
03-01-2020,04:00,0.38120,R,ugm-3,1.00804,R,ugm-3,1.59254,R,ugm-3,83.80108,R,ugm-3
03-01-2020,05:00,0.34655,R,ugm-3,0.63650,R,ugm-3,1.16786,R,ugm-3,83.90551,R,ugm-3
03-01-2020,06:00,1.07430,R,ugm-3,3.13038,R,ugm-3,4.77761,R,ugm-3,81.71258,R,ugm-3
03-01-2020,07:00,0.55448,R,ugm-3,1.75096,R,ugm-3,2.60114,R,ugm-3,83.64445,R,ugm-3
03-01-2020,08:00,1.14360,R,ugm-3,4.29814,R,ugm-3,6.05164,R,ugm-3,80.77276,R,ugm-3
03-01-2020,09:00,1.55946,R,ugm-3,4.82836,R,ugm-3,7.21950,R,ugm-3,80.45948,R,ugm-3
03-01-2020,10:00,0.93568,R,ugm-3,4.98855,R,ugm-3,6.42323,R,ugm-3,78.89311,R,ugm-3
03-01-2020,11:00,2.35652,R,ugm-3,10.45413,R,ugm-3,14.06741,R,ugm-3,74.03734,R,ugm-3
03-01-2020,12:00,1.73273,R,ugm-3,6.63298,R,ugm-3,9.28980,R,ugm-3,77.37894,R,ugm-3
03-01-2020,13:00,2.07928,R,ugm-3,11.46315,R,ugm-3,14.65134,R,ugm-3,72.00105,R,ugm-3
03-01-2020,14:00,1.45550,R,ugm-3,7.27041,R,ugm-3,9.50214,R,ugm-3,78.21434,R,ugm-3
03-01-2020,15:00,1.45550,R,ugm-3,8.01359,R,ugm-3,10.24532,R,ugm-3,76.80461,R,ugm-3
03-01-2020,16:00,1.69808,R,ugm-3,8.06631,R,ugm-3,10.67000,R,ugm-3,76.07363,R,ugm-3
03-01-2020,17:00,1.07430,R,ugm-3,7.58949,R,ugm-3,9.23672,R,ugm-3,73.88070,R,ugm-3
03-01-2020,18:00,1.49015,R,ugm-3,6.36792,R,ugm-3,8.65279,R,ugm-3,77.37894,R,ugm-3
03-01-2020,19:00,1.07430,R,ugm-3,3.02421,R,ugm-3,4.67144,R,ugm-3,80.45948,R,ugm-3
03-01-2020,20:00,2.77238,R,ugm-3,8.43630,R,ugm-3,12.68721,R,ugm-3,74.82053,R,ugm-3
03-01-2020,21:00,1.00499,R,ugm-3,4.56377,R,ugm-3,6.10473,R,ugm-3,78.47541,R,ugm-3
03-01-2020,22:00,0.72775,R,ugm-3,3.23707,R,ugm-3,4.35293,R,ugm-3,81.97365,R,ugm-3
03-01-2020,23:00,0.51982,R,ugm-3,2.17569,R,ugm-3,2.97274,R,ugm-3,84.27100,R,ugm-3
03-01-2020,24:00,0.62379,R,ugm-3,1.96320,R,ugm-3,2.91965,R,ugm-3,82.23471,R,ugm-3
04-01-2020,01:00,0.46260,R,ugm-3,0.91950,R,ugm-3,1.62881,R,ugm-3,83.43350,R,ugm-3
04-01-2020,02:00,0.86737,R,ugm-3,1.27260,R,ugm-3,2.60256,R,ugm-3,82.03946,R,ugm-3
04-01-2020,03:00,0.65920,R,ugm-3,2.06981,R,ugm-3,3.08058,R,ugm-3,80.71512,R,ugm-3
04-01-2020,04:00,0.24286,R,ugm-3,0.84922,R,ugm-3,1.22161,R,ugm-3,83.38123,R,ugm-3
04-01-2020,05:00,0.62451,R,ugm-3,2.22924,R,ugm-3,3.18680,R,ugm-3,81.18561,R,ugm-3
04-01-2020,06:00,0.65920,R,ugm-3,2.28227,R,ugm-3,3.29303,R,ugm-3,81.91748,R,ugm-3
04-01-2020,07:00,0.38164,R,ugm-3,1.96426,R,ugm-3,2.54944,R,ugm-3,80.40146,R,ugm-3
04-01-2020,08:00,2.01231,R,ugm-3,7.05916,R,ugm-3,10.14466,R,ugm-3,74.96469,R,ugm-3
04-01-2020,09:00,0.58981,R,ugm-3,6.79707,R,ugm-3,7.70144,R,ugm-3,74.65103,R,ugm-3
04-01-2020,10:00,0.62451,R,ugm-3,4.14132,R,ugm-3,5.09889,R,ugm-3,77.99673,R,ugm-3
04-01-2020,11:00,1.31841,R,ugm-3,4.45830,R,ugm-3,6.47983,R,ugm-3,77.26486,R,ugm-3
04-01-2020,12:00,1.35310,R,ugm-3,8.60106,R,ugm-3,10.67579,R,ugm-3,70.36435,R,ugm-3
04-01-2020,13:00,1.07554,R,ugm-3,6.10541,R,ugm-3,7.75455,R,ugm-3,74.23282,R,ugm-3
04-01-2020,14:00,1.14493,R,ugm-3,5.46788,R,ugm-3,7.22342,R,ugm-3,77.31714,R,ugm-3
04-01-2020,15:00,1.04085,R,ugm-3,4.88389,R,ugm-3,6.47983,R,ugm-3,77.26486,R,ugm-3
04-01-2020,16:00,0.65920,R,ugm-3,3.76944,R,ugm-3,4.78021,R,ugm-3,78.10129,R,ugm-3
04-01-2020,17:00,1.07554,R,ugm-3,9.13288,R,ugm-3,10.78202,R,ugm-3,73.18728,R,ugm-3
04-01-2020,18:00,0.93676,R,ugm-3,5.73396,R,ugm-3,7.17031,R,ugm-3,76.32388,R,ugm-3
04-01-2020,19:00,0.55512,R,ugm-3,3.39790,R,ugm-3,4.24907,R,ugm-3,77.26486,R,ugm-3
04-01-2020,20:00,0.62451,R,ugm-3,2.97282,R,ugm-3,3.93039,R,ugm-3,71.51443,R,ugm-3
04-01-2020,21:00,0.38164,R,ugm-3,2.38917,R,ugm-3,2.97435,R,ugm-3,68.58694,R,ugm-3
04-01-2020,22:00,0.38164,R,ugm-3,2.17672,R,ugm-3,2.76190,R,ugm-3,67.01864,R,ugm-3
04-01-2020,23:00,0.41634,R,ugm-3,1.96418,R,ugm-3,2.60256,R,ugm-3,70.15524,R,ugm-3
04-01-2020,24:00,0.45103,R,ugm-3,1.37985,R,ugm-3,2.07142,R,ugm-3,71.98492,R,ugm-3
05-01-2020,01:00,1.29678,R,ugm-3,2.05044,R,ugm-3,4.03881,R,ugm-3,72.85832,R,ugm-3
05-01-2020,02:00,0.52103,R,ugm-3,0.58280,R,ugm-3,1.38170,R,ugm-3,74.88216,R,ugm-3
05-01-2020,03:00,0.41682,R,ugm-3,0.31744,R,ugm-3,0.95656,R,ugm-3,82.80307,R,ugm-3
05-01-2020,04:00,0.24315,R,ugm-3,0.37117,R,ugm-3,0.74399,R,ugm-3,84.73967,R,ugm-3
05-01-2020,05:00,0.38209,R,ugm-3,0.21127,R,ugm-3,0.79713,R,ugm-3,85.21074,R,ugm-3
05-01-2020,06:00,0.48629,R,ugm-3,0.52978,R,ugm-3,1.27541,R,ugm-3,83.43116,R,ugm-3
05-01-2020,07:00,0.76418,R,ugm-3,1.37911,R,ugm-3,2.55083,R,ugm-3,81.91327,R,ugm-3
05-01-2020,08:00,0.52103,R,ugm-3,1.11422,R,ugm-3,1.91312,R,ugm-3,82.59370,R,ugm-3
05-01-2020,09:00,0.52103,R,ugm-3,0.95480,R,ugm-3,1.75369,R,ugm-3,80.55241,R,ugm-3
05-01-2020,10:00,0.52103,R,ugm-3,1.27365,R,ugm-3,2.07255,R,ugm-3,77.62133,R,ugm-3
05-01-2020,11:00,0.69470,R,ugm-3,1.59191,R,ugm-3,2.65711,R,ugm-3,74.21918,R,ugm-3
05-01-2020,12:00,1.04206,R,ugm-3,3.98214,R,ugm-3,5.57993,R,ugm-3,70.39831,R,ugm-3
05-01-2020,13:00,1.31994,R,ugm-3,3.50292,R,ugm-3,5.52679,R,ugm-3,69.03745,R,ugm-3
05-01-2020,14:00,1.18100,R,ugm-3,3.55653,R,ugm-3,5.36736,R,ugm-3,67.67659,R,ugm-3
05-01-2020,15:00,1.00732,R,ugm-3,2.12228,R,ugm-3,3.66681,R,ugm-3,68.77574,R,ugm-3
05-01-2020,16:00,1.00732,R,ugm-3,2.33485,R,ugm-3,3.87938,R,ugm-3,67.20552,R,ugm-3
05-01-2020,17:00,0.93785,R,ugm-3,2.22880,R,ugm-3,3.66681,R,ugm-3,65.89700,R,ugm-3
05-01-2020,18:00,3.43878,R,ugm-3,6.31228,R,ugm-3,11.58500,R,ugm-3,59.45909,R,ugm-3
05-01-2020,19:00,4.37663,R,ugm-3,7.69080,R,ugm-3,14.40154,R,ugm-3,57.88887,R,ugm-3
05-01-2020,20:00,1.18100,R,ugm-3,2.91882,R,ugm-3,4.72966,R,ugm-3,60.81995,R,ugm-3
05-01-2020,21:00,0.55576,R,ugm-3,2.38952,R,ugm-3,3.24168,R,ugm-3,60.87229,R,ugm-3
05-01-2020,22:00,0.55576,R,ugm-3,1.91124,R,ugm-3,2.76340,R,ugm-3,60.03484,R,ugm-3
05-01-2020,23:00,0.62523,R,ugm-3,1.80472,R,ugm-3,2.76340,R,ugm-3,60.29654,R,ugm-3
05-01-2020,24:00,0.45156,R,ugm-3,0.90189,R,ugm-3,1.59427,R,ugm-3,62.54720,R,ugm-3
06-01-2020,01:00,0.27820,R,ugm-3,0.99132,R,ugm-3,1.41790,R,ugm-3,61.76787,R,ugm-3
06-01-2020,02:00,0.32457,R,ugm-3,1.34560,R,ugm-3,1.84326,R,ugm-3,64.63267,R,ugm-3
06-01-2020,03:00,0.34776,R,ugm-3,0.63655,R,ugm-3,1.16976,R,ugm-3,74.57213,R,ugm-3
06-01-2020,04:00,0.27820,R,ugm-3,0.90270,R,ugm-3,1.32928,R,ugm-3,76.19668,R,ugm-3
06-01-2020,05:00,0.20865,R,ugm-3,0.79666,R,ugm-3,1.11659,R,ugm-3,78.50249,R,ugm-3
06-01-2020,06:00,0.27820,R,ugm-3,1.16856,R,ugm-3,1.59513,R,ugm-3,77.13997,R,ugm-3
06-01-2020,07:00,0.27820,R,ugm-3,1.48759,R,ugm-3,1.91416,R,ugm-3,76.40630,R,ugm-3
06-01-2020,08:00,0.76506,R,ugm-3,2.81475,R,ugm-3,3.98783,R,ugm-3,75.88225,R,ugm-3
06-01-2020,09:00,0.73028,R,ugm-3,4.25052,R,ugm-3,5.37028,R,ugm-3,74.41491,R,ugm-3
06-01-2020,10:00,0.66073,R,ugm-3,2.86838,R,ugm-3,3.88149,R,ugm-3,77.29718,R,ugm-3
06-01-2020,11:00,1.63444,R,ugm-3,3.44904,R,ugm-3,5.95516,R,ugm-3,77.08756,R,ugm-3
06-01-2020,12:00,0.97371,R,ugm-3,2.86702,R,ugm-3,4.36003,R,ugm-3,76.19668,R,ugm-3
06-01-2020,13:00,1.63444,R,ugm-3,5.04418,R,ugm-3,7.55029,R,ugm-3,72.89517,R,ugm-3
06-01-2020,14:00,1.63444,R,ugm-3,6.00125,R,ugm-3,8.50737,R,ugm-3,74.83415,R,ugm-3
06-01-2020,15:00,1.18236,R,ugm-3,6.53492,R,ugm-3,8.34785,R,ugm-3,72.73796,R,ugm-3
06-01-2020,16:00,1.80832,R,ugm-3,6.63855,R,ugm-3,9.41128,R,ugm-3,70.79898,R,ugm-3
06-01-2020,17:00,1.80832,R,ugm-3,7.70197,R,ugm-3,10.47470,R,ugm-3,71.68986,R,ugm-3
06-01-2020,18:00,1.11281,R,ugm-3,5.04643,R,ugm-3,6.75272,R,ugm-3,74.62453,R,ugm-3
06-01-2020,19:00,1.35624,R,ugm-3,5.04538,R,ugm-3,7.12492,R,ugm-3,73.41922,R,ugm-3
06-01-2020,20:00,4.55558,R,ugm-3,14.01744,R,ugm-3,21.00256,R,ugm-3,64.61520,R,ugm-3
06-01-2020,21:00,0.48686,R,ugm-3,2.01839,R,ugm-3,2.76489,R,ugm-3,73.83846,R,ugm-3
06-01-2020,22:00,0.38253,R,ugm-3,1.91250,R,ugm-3,2.49904,R,ugm-3,72.99998,R,ugm-3
06-01-2020,23:00,0.41731,R,ugm-3,1.11479,R,ugm-3,1.75464,R,ugm-3,75.09618,R,ugm-3
06-01-2020,24:00,0.27820,R,ugm-3,1.16856,R,ugm-3,1.59513,R,ugm-3,74.67694,R,ugm-3
07-01-2020,01:00,0.32495,R,ugm-3,0.70762,R,ugm-3,1.20586,R,ugm-3,77.72406,R,ugm-3
07-01-2020,02:00,0.45260,R,ugm-3,0.74241,R,ugm-3,1.43640,R,ugm-3,73.38662,R,ugm-3
07-01-2020,03:00,0.31334,R,ugm-3,0.37075,R,ugm-3,0.85120,R,ugm-3,75.24053,R,ugm-3
07-01-2020,04:00,0.34816,R,ugm-3,0.68976,R,ugm-3,1.22360,R,ugm-3,76.39484,R,ugm-3
07-01-2020,05:00,0.24371,R,ugm-3,0.53072,R,ugm-3,0.90440,R,ugm-3,77.28682,R,ugm-3
07-01-2020,06:00,2.54154,R,ugm-3,2.48701,R,ugm-3,6.38398,R,ugm-3,72.35473,R,ugm-3
07-01-2020,07:00,2.22820,R,ugm-3,2.64825,R,ugm-3,6.06478,R,ugm-3,69.78375,R,ugm-3
07-01-2020,08:00,1.32300,R,ugm-3,4.14262,R,ugm-3,6.17118,R,ugm-3,65.74364,R,ugm-3
07-01-2020,09:00,1.11410,R,ugm-3,3.98412,R,ugm-3,5.69239,R,ugm-3,63.80229,R,ugm-3
07-01-2020,10:00,0.97484,R,ugm-3,3.61246,R,ugm-3,5.10719,R,ugm-3,64.22204,R,ugm-3
07-01-2020,11:00,1.39263,R,ugm-3,3.92945,R,ugm-3,6.06478,R,ugm-3,63.22513,R,ugm-3
07-01-2020,12:00,1.32300,R,ugm-3,3.98302,R,ugm-3,6.01158,R,ugm-3,60.86402,R,ugm-3
07-01-2020,13:00,1.32300,R,ugm-3,3.87662,R,ugm-3,5.90519,R,ugm-3,60.39180,R,ugm-3
07-01-2020,14:00,1.18373,R,ugm-3,3.29216,R,ugm-3,5.10719,R,ugm-3,59.39489,R,ugm-3
07-01-2020,15:00,1.14892,R,ugm-3,3.61154,R,ugm-3,5.37319,R,ugm-3,58.34551,R,ugm-3
07-01-2020,16:00,1.39263,R,ugm-3,4.03585,R,ugm-3,6.17118,R,ugm-3,58.39798,R,ugm-3
07-01-2020,17:00,0.87039,R,ugm-3,3.13421,R,ugm-3,4.46879,R,ugm-3,66.79302,R,ugm-3
07-01-2020,18:00,1.04447,R,ugm-3,2.81409,R,ugm-3,4.41559,R,ugm-3,80.17261,R,ugm-3
07-01-2020,19:00,0.80076,R,ugm-3,2.07058,R,ugm-3,3.29839,R,ugm-3,78.86089,R,ugm-3
07-01-2020,20:00,1.18373,R,ugm-3,2.60056,R,ugm-3,4.41559,R,ugm-3,76.23744,R,ugm-3
07-01-2020,21:00,0.66150,R,ugm-3,1.53931,R,ugm-3,2.55359,R,ugm-3,76.28991,R,ugm-3
07-01-2020,22:00,0.52224,R,ugm-3,0.74205,R,ugm-3,1.54280,R,ugm-3,80.59236,R,ugm-3
07-01-2020,23:00,0.38297,R,ugm-3,0.84918,R,ugm-3,1.43640,R,ugm-3,87.15099,R,ugm-3
07-01-2020,24:00,0.27853,R,ugm-3,0.47733,R,ugm-3,0.90440,R,ugm-3,90.03678,R,ugm-3
08-01-2020,01:00,0.32532,R,ugm-3,0.28187,R,ugm-3,0.78069,R,ugm-3,89.16619,R,ugm-3
08-01-2020,02:00,0.34856,R,ugm-3,0.15752,R,ugm-3,0.69197,R,ugm-3,85.87412,R,ugm-3
08-01-2020,03:00,0.17428,R,ugm-3,0.42475,R,ugm-3,0.69197,R,ugm-3,84.68336,R,ugm-3
08-01-2020,04:00,0.17428,R,ugm-3,0.42475,R,ugm-3,0.69197,R,ugm-3,84.63083,R,ugm-3
08-01-2020,05:00,0.34856,R,ugm-3,0.90273,R,ugm-3,1.43718,R,ugm-3,82.05671,R,ugm-3
08-01-2020,06:00,0.31370,R,ugm-3,1.06263,R,ugm-3,1.54363,R,ugm-3,82.10924,R,ugm-3
08-01-2020,07:00,0.94111,R,ugm-3,2.70882,R,ugm-3,4.15184,R,ugm-3,77.43380,R,ugm-3
08-01-2020,08:00,2.09135,R,ugm-3,6.42769,R,ugm-3,9.63439,R,ugm-3,73.75648,R,ugm-3
08-01-2020,09:00,2.16107,R,ugm-3,7.33215,R,ugm-3,10.64574,R,ugm-3,74.80714,R,ugm-3
08-01-2020,10:00,2.82333,R,ugm-3,6.36992,R,ugm-3,10.69897,R,ugm-3,75.54260,R,ugm-3
08-01-2020,11:00,1.46395,R,ugm-3,3.50401,R,ugm-3,5.74870,R,ugm-3,76.90847,R,ugm-3
08-01-2020,12:00,1.67308,R,ugm-3,5.89800,R,ugm-3,8.46336,R,ugm-3,76.38313,R,ugm-3
08-01-2020,13:00,1.39424,R,ugm-3,5.47390,R,ugm-3,7.61170,R,ugm-3,75.01727,R,ugm-3
08-01-2020,14:00,1.35938,R,ugm-3,7.12421,R,ugm-3,9.20856,R,ugm-3,71.97035,R,ugm-3
08-01-2020,15:00,1.91708,R,ugm-3,6.37555,R,ugm-3,9.31502,R,ugm-3,74.54447,R,ugm-3
08-01-2020,16:00,2.05650,R,ugm-3,7.75863,R,ugm-3,10.91188,R,ugm-3,71.91782,R,ugm-3
08-01-2020,17:00,1.01082,R,ugm-3,4.83754,R,ugm-3,6.38744,R,ugm-3,74.75461,R,ugm-3
08-01-2020,18:00,0.83654,R,ugm-3,3.45467,R,ugm-3,4.73735,R,ugm-3,76.69833,R,ugm-3
08-01-2020,19:00,0.73197,R,ugm-3,4.09407,R,ugm-3,5.21641,R,ugm-3,73.38875,R,ugm-3
08-01-2020,20:00,0.59255,R,ugm-3,3.45619,R,ugm-3,4.36475,R,ugm-3,76.69833,R,ugm-3
08-01-2020,21:00,0.59255,R,ugm-3,3.61587,R,ugm-3,4.52444,R,ugm-3,74.59701,R,ugm-3
08-01-2020,22:00,0.55769,R,ugm-3,3.45640,R,ugm-3,4.31153,R,ugm-3,72.81088,R,ugm-3
08-01-2020,23:00,0.55769,R,ugm-3,2.60475,R,ugm-3,3.45987,R,ugm-3,70.18423,R,ugm-3
08-01-2020,24:00,0.45313,R,ugm-3,3.08445,R,ugm-3,3.77924,R,ugm-3,63.45999,R,ugm-3
09-01-2020,01:00,0.41875,R,ugm-3,3.83155,R,ugm-3,4.47363,R,ugm-3,57.15565,R,ugm-3
09-01-2020,02:00,0.59324,R,ugm-3,3.19122,R,ugm-3,4.10083,R,ugm-3,46.49594,R,ugm-3
09-01-2020,03:00,0.41875,R,ugm-3,5.96185,R,ugm-3,6.60393,R,ugm-3,39.39532,R,ugm-3
09-01-2020,04:00,0.55834,R,ugm-3,6.33366,R,ugm-3,7.18977,R,ugm-3,29.71743,R,ugm-3
09-01-2020,05:00,0.59324,R,ugm-3,6.59970,R,ugm-3,7.50931,R,ugm-3,22.61681,R,ugm-3
09-01-2020,06:00,32.59301,R,ugm-3,16.49013,R,ugm-3,66.46538,R,ugm-3,18.93500,R,ugm-3
09-01-2020,07:00,4.46671,R,ugm-3,18.28869,R,ugm-3,25.13755,R,ugm-3,17.88306,R,ugm-3
09-01-2020,08:00,4.60629,R,ugm-3,23.29390,R,ugm-3,30.35678,R,ugm-3,11.83438,R,ugm-3
09-01-2020,09:00,25.26482,R,ugm-3,34.22395,R,ugm-3,72.96280,R,ugm-3,2.78765,R,ugm-3
09-01-2020,10:00,33.29093,R,ugm-3,29.42672,R,ugm-3,80.47211,R,ugm-3,4.47076,R,ugm-3
09-01-2020,11:00,5.47870,R,ugm-3,18.12169,R,ugm-3,26.52224,R,ugm-3,13.67528,R,ugm-3
09-01-2020,12:00,3.38493,R,ugm-3,14.30210,R,ugm-3,19.49225,R,ugm-3,20.19733,R,ugm-3
09-01-2020,13:00,3.52451,R,ugm-3,12.06429,R,ugm-3,17.46847,R,ugm-3,27.71874,R,ugm-3
09-01-2020,14:00,3.41982,R,ugm-3,14.94094,R,ugm-3,20.18460,R,ugm-3,29.40185,R,ugm-3
09-01-2020,15:00,1.91929,R,ugm-3,15.27120,R,ugm-3,18.21407,R,ugm-3,25.82524,R,ugm-3
09-01-2020,16:00,4.99015,R,ugm-3,20.84131,R,ugm-3,28.49277,R,ugm-3,17.98825,R,ugm-3
09-01-2020,17:00,25.82316,R,ugm-3,37.20239,R,ugm-3,76.79734,R,ugm-3,3.31362,R,ugm-3
09-01-2020,18:00,38.80453,R,ugm-3,35.13916,R,ugm-3,94.63861,R,ugm-3,2.20908,R,ugm-3
09-01-2020,19:00,35.52429,R,ugm-3,29.09123,R,ugm-3,83.56104,R,ugm-3,3.73440,R,ugm-3
09-01-2020,20:00,39.95610,R,ugm-3,28.10095,R,ugm-3,89.36611,R,ugm-3,3.15583,R,ugm-3
09-01-2020,21:00,42.15456,R,ugm-3,24.78329,R,ugm-3,89.41937,R,ugm-3,1.78831,R,ugm-3
09-01-2020,22:00,21.46114,R,ugm-3,24.50499,R,ugm-3,57.41160,R,ugm-3,1.68311,R,ugm-3
09-01-2020,23:00,16.19182,R,ugm-3,21.13413,R,ugm-3,45.96124,R,ugm-3,1.36753,R,ugm-3
09-01-2020,24:00,11.13187,R,ugm-3,20.10511,R,ugm-3,37.17375,R,ugm-3,2.31428,R,ugm-3
10-01-2020,01:00,2.09618,R,ugm-3,10.78244,R,ugm-3,13.99655,R,ugm-3,10.46205,R,ugm-3
10-01-2020,02:00,1.21113,R,ugm-3,6.24249,R,ugm-3,8.09952,R,ugm-3,17.55378,R,ugm-3
10-01-2020,03:00,1.08303,R,ugm-3,7.98421,R,ugm-3,9.64483,R,ugm-3,15.69308,R,ugm-3
10-01-2020,04:00,0.76860,R,ugm-3,7.77360,R,ugm-3,8.95211,R,ugm-3,15.53510,R,ugm-3
10-01-2020,05:00,0.66379,R,ugm-3,5.32328,R,ugm-3,6.34108,R,ugm-3,17.64155,R,ugm-3
10-01-2020,06:00,1.08303,R,ugm-3,7.77106,R,ugm-3,9.43168,R,ugm-3,17.69421,R,ugm-3
10-01-2020,07:00,3.14428,R,ugm-3,16.59995,R,ugm-3,21.42111,R,ugm-3,12.58606,R,ugm-3
10-01-2020,08:00,3.03947,R,ugm-3,13.08390,R,ugm-3,17.74435,R,ugm-3,32.22874,R,ugm-3
10-01-2020,09:00,3.91288,R,ugm-3,12.43741,R,ugm-3,18.43707,R,ugm-3,37.91617,R,ugm-3
10-01-2020,10:00,3.87794,R,ugm-3,16.27431,R,ugm-3,22.22040,R,ugm-3,37.65286,R,ugm-3
10-01-2020,11:00,9.67738,R,ugm-3,19.69110,R,ugm-3,34.52955,R,ugm-3,32.75535,R,ugm-3
10-01-2020,12:00,6.63792,R,ugm-3,16.46518,R,ugm-3,26.64317,R,ugm-3,30.70156,R,ugm-3
10-01-2020,13:00,1.85163,R,ugm-3,7.12542,R,ugm-3,9.96455,R,ugm-3,61.71909,R,ugm-3
10-01-2020,14:00,0.76860,R,ugm-3,2.92454,R,ugm-3,4.10305,R,ugm-3,74.98975,R,ugm-3
10-01-2020,15:00,0.83847,R,ugm-3,1.91154,R,ugm-3,3.19718,R,ugm-3,77.62282,R,ugm-3
10-01-2020,16:00,3.91288,R,ugm-3,5.88319,R,ugm-3,11.88285,R,ugm-3,76.62225,R,ugm-3
10-01-2020,17:00,4.12250,R,ugm-3,9.55826,R,ugm-3,15.87933,R,ugm-3,74.30515,R,ugm-3
10-01-2020,18:00,1.08303,R,ugm-3,6.65205,R,ugm-3,8.31267,R,ugm-3,69.93426,R,ugm-3
10-01-2020,19:00,2.13112,R,ugm-3,9.30790,R,ugm-3,12.57558,R,ugm-3,65.14208,R,ugm-3
10-01-2020,20:00,6.56804,R,ugm-3,15.50658,R,ugm-3,25.57744,R,ugm-3,59.71796,R,ugm-3
10-01-2020,21:00,1.29265,R,ugm-3,5.53134,R,ugm-3,7.51338,R,ugm-3,66.98523,R,ugm-3
10-01-2020,22:00,0.59392,R,ugm-3,3.40553,R,ugm-3,4.31619,R,ugm-3,67.66982,R,ugm-3
10-01-2020,23:00,1.74682,R,ugm-3,3.39622,R,ugm-3,6.07464,R,ugm-3,66.03732,R,ugm-3
10-01-2020,24:00,0.73366,R,ugm-3,1.75253,R,ugm-3,2.87746,R,ugm-3,66.93257,R,ugm-3
11-01-2020,01:00,0.37308,R,ugm-3,1.20512,R,ugm-3,1.77717,R,ugm-3,67.69949,R,ugm-3
11-01-2020,02:00,0.45470,R,ugm-3,0.84895,R,ugm-3,1.54614,R,ugm-3,67.20739,R,ugm-3
11-01-2020,03:00,0.41972,R,ugm-3,0.79595,R,ugm-3,1.43951,R,ugm-3,67.17224,R,ugm-3
11-01-2020,04:00,0.31479,R,ugm-3,0.74358,R,ugm-3,1.22625,R,ugm-3,66.90861,R,ugm-3
11-01-2020,05:00,0.73451,R,ugm-3,1.21964,R,ugm-3,2.34587,R,ugm-3,66.38135,R,ugm-3
11-01-2020,06:00,0.52465,R,ugm-3,0.90164,R,ugm-3,1.70609,R,ugm-3,66.06500,R,ugm-3
11-01-2020,07:00,0.41972,R,ugm-3,0.90258,R,ugm-3,1.54614,R,ugm-3,88.47332,R,ugm-3
11-01-2020,08:00,1.15423,R,ugm-3,5.96091,R,ugm-3,7.73070,R,ugm-3,82.88442,R,ugm-3
11-01-2020,09:00,1.15423,R,ugm-3,5.42775,R,ugm-3,7.19755,R,ugm-3,84.67709,R,ugm-3
11-01-2020,10:00,0.76949,R,ugm-3,3.77845,R,ugm-3,4.95831,R,ugm-3,85.83705,R,ugm-3
11-01-2020,11:00,3.07795,R,ugm-3,11.16847,R,ugm-3,15.88792,R,ugm-3,80.35360,R,ugm-3
11-01-2020,12:00,4.65189,R,ugm-3,12.48718,R,ugm-3,19.61998,R,ugm-3,79.72090,R,ugm-3
11-01-2020,13:00,1.64390,R,ugm-3,5.79655,R,ugm-3,8.31717,R,ugm-3,78.87729,R,ugm-3
11-01-2020,14:00,0.94437,R,ugm-3,3.19041,R,ugm-3,4.63842,R,ugm-3,76.87372,R,ugm-3
11-01-2020,15:00,2.02865,R,ugm-3,7.28591,R,ugm-3,10.39646,R,ugm-3,71.54845,R,ugm-3
11-01-2020,16:00,1.43404,R,ugm-3,4.51888,R,ugm-3,6.71771,R,ugm-3,72.44478,R,ugm-3
11-01-2020,17:00,1.32911,R,ugm-3,5.42618,R,ugm-3,7.46412,R,ugm-3,72.02298,R,ugm-3
11-01-2020,18:00,1.01432,R,ugm-3,4.52266,R,ugm-3,6.07793,R,ugm-3,74.23745,R,ugm-3
11-01-2020,19:00,0.97935,R,ugm-3,4.30971,R,ugm-3,5.81135,R,ugm-3,74.39562,R,ugm-3
11-01-2020,20:00,0.76949,R,ugm-3,4.95138,R,ugm-3,6.13124,R,ugm-3,75.66103,R,ugm-3
11-01-2020,21:00,0.59460,R,ugm-3,3.08693,R,ugm-3,3.99864,R,ugm-3,77.03190,R,ugm-3
11-01-2020,22:00,0.48967,R,ugm-3,2.28814,R,ugm-3,3.03896,R,ugm-3,80.03725,R,ugm-3
11-01-2020,23:00,0.45470,R,ugm-3,1.80862,R,ugm-3,2.50581,R,ugm-3,81.35538,R,ugm-3
11-01-2020,24:00,0.34977,R,ugm-3,1.06316,R,ugm-3,1.59945,R,ugm-3,75.92466,R,ugm-3
12-01-2020,01:00,0.32682,R,ugm-3,1.13476,R,ugm-3,1.63588,R,ugm-3,76.08738,R,ugm-3
12-01-2020,02:00,0.70034,R,ugm-3,1.00658,R,ugm-3,2.08042,R,ugm-3,71.65305,R,ugm-3
12-01-2020,03:00,0.42020,R,ugm-3,1.54280,R,ugm-3,2.18710,R,ugm-3,74.11657,R,ugm-3
12-01-2020,04:00,0.28014,R,ugm-3,2.93114,R,ugm-3,3.36067,R,ugm-3,60.76081,R,ugm-3
12-01-2020,05:00,0.35017,R,ugm-3,1.01006,R,ugm-3,1.54698,R,ugm-3,70.05177,R,ugm-3
12-01-2020,06:00,1.01549,R,ugm-3,3.40393,R,ugm-3,4.96099,R,ugm-3,73.85262,R,ugm-3
12-01-2020,07:00,0.35017,R,ugm-3,1.17009,R,ugm-3,1.70701,R,ugm-3,77.70626,R,ugm-3
12-01-2020,08:00,0.52525,R,ugm-3,2.50195,R,ugm-3,3.30733,R,ugm-3,76.17536,R,ugm-3
12-01-2020,09:00,0.52525,R,ugm-3,2.44861,R,ugm-3,3.25398,R,ugm-3,79.65947,R,ugm-3
12-01-2020,10:00,0.56027,R,ugm-3,3.24842,R,ugm-3,4.10749,R,ugm-3,76.33373,R,ugm-3
12-01-2020,11:00,0.66532,R,ugm-3,3.40741,R,ugm-3,4.42755,R,ugm-3,75.38352,R,ugm-3
12-01-2020,12:00,1.15556,R,ugm-3,4.84283,R,ugm-3,6.61466,R,ugm-3,73.06078,R,ugm-3
12-01-2020,13:00,1.50573,R,ugm-3,5.21276,R,ugm-3,7.52150,R,ugm-3,75.48910,R,ugm-3
12-01-2020,14:00,1.01549,R,ugm-3,3.93737,R,ugm-3,5.49443,R,ugm-3,76.43931,R,ugm-3
12-01-2020,15:00,1.29563,R,ugm-3,5.05481,R,ugm-3,7.04141,R,ugm-3,77.97021,R,ugm-3
12-01-2020,16:00,1.19057,R,ugm-3,5.96270,R,ugm-3,7.78822,R,ugm-3,78.49810,R,ugm-3
12-01-2020,17:00,1.54074,R,ugm-3,6.97276,R,ugm-3,9.33520,R,ugm-3,75.38352,R,ugm-3
12-01-2020,18:00,1.12054,R,ugm-3,6.55018,R,ugm-3,8.26832,R,ugm-3,78.49810,R,ugm-3
12-01-2020,19:00,5.46263,R,ugm-3,12.90833,R,ugm-3,21.28425,R,ugm-3,70.68525,R,ugm-3
12-01-2020,20:00,1.15556,R,ugm-3,3.50923,R,ugm-3,5.28106,R,ugm-3,82.08779,R,ugm-3
12-01-2020,21:00,0.45522,R,ugm-3,2.07589,R,ugm-3,2.77389,R,ugm-3,79.34274,R,ugm-3
12-01-2020,22:00,0.45522,R,ugm-3,1.80917,R,ugm-3,2.50717,R,ugm-3,74.48609,R,ugm-3
12-01-2020,23:00,0.38519,R,ugm-3,1.96990,R,ugm-3,2.56051,R,ugm-3,74.01099,R,ugm-3
12-01-2020,24:00,0.38519,R,ugm-3,1.38312,R,ugm-3,1.97373,R,ugm-3,75.27794,R,ugm-3